Location: Unspecified
(0.0000°N, 0.0000°E)
Time: 07:40:27
(UTC+00:00)

Kosmos-2154 - Visible Passes

Search period start: 10 June 2023 00:00
Search period end: 20 June 2023 00:00
Orbit: 968 x 1006 km, 82.9° (Epoch: 09 June)

Date Brightness Start Highest point End Pass type
(mag) Time Alt. Az. Time Alt. Az. Time Alt. Az.
10 Jun 7.6 20:37:09 25° N 20:37:09 25° N 20:39:30 10° N visible
11 Jun 8.0 19:20:07 10° ENE 19:20:07 10° ENE 19:20:10 10° ENE visible
11 Jun 7.7 21:04:57 26° NW 21:04:57 26° NW 21:07:55 10° NNW visible
12 Jun 7.0 19:47:49 29° NE 19:47:49 29° NE 19:51:20 10° NNE visible
12 Jun 8.4 21:32:38 15° WNW 21:32:38 15° WNW 21:34:45 10° NW visible
13 Jun 6.0 20:15:21 70° N 20:15:21 70° N 20:20:46 10° N visible
14 Jun 7.4 18:57:53 16° E 18:58:06 16° E 19:01:39 10° ENE visible
14 Jun 7.1 20:42:42 37° WSW 20:43:25 39° W 20:49:07 10° NNW visible
15 Jun 6.4 19:24:59 31° SE 19:26:58 39° E 19:32:39 10° NNE visible
15 Jun 8.4 21:09:46 13° WSW 21:12:16 16° W 21:15:49 10° NW visible
16 Jun 5.9 19:51:37 22° S 19:55:50 88° W 20:02:02 10° N visible
17 Jun 7.4 18:35:36 10° SE 18:39:22 17° E 18:43:06 10° NE visible
17 Jun 7.3 20:19:02 10° SSW 20:24:41 37° W 20:30:19 10° NNW visible
18 Jun 6.4 19:02:28 10° SSE 19:08:14 41° E 19:13:59 10° NNE visible
18 Jun 8.5 20:50:13 10° WSW 20:53:32 15° W 20:56:52 10° NW visible
19 Jun 6.0 19:30:53 10° S 19:37:06 85° W 19:43:17 10° N visible
